Weather History for Lake Charles Regional, LA

Change the Weather History Date:

Sunday, May 5, 2013

  Actual Average Record
Temperature  
Mean Temperature 59 °F 73 °F  
Max Temperature 70 °F 82 °F 91 °F (1952)
Min Temperature 48 °F 64 °F 48 °F (1921)
Degree Days  
Heating Degree Days 6 0  
Month to date heating degree days 22 0  
Since 1 July heating degree days 1265 1489  
Cooling Degree Days 0 8  
Month to date cooling degree days 11 38  
Year to date cooling degree days 189 246  
Growing Degree Days 9 (Base 50)    
Moisture  
Dew Point 42 °F    
Average Humidity 61    
Maximum Humidity 86    
Minimum Humidity 35    
Precipitation  
Precipitation 0.00 in 0.15 in 2.77 in (1941)
Month to date precipitation 0.06 0.69  
Year to date precipitation 23.72 16.37  
Snow  
Snow 0.00 in 0.00 in 0.00 in ()
Month to date snowfall 0.0 0.0  
Since 1 July snowfall 0.0 0.1  
Snow Depth 0.00 in    
Sea Level Pressure  
Sea Level Pressure 30.03 in    
Wind  
Wind Speed 8 mph (North)    
Max Wind Speed 18 mph    
Max Gust Speed 25 mph    
Visibility 10 miles    
Events      
T = Trace of Precipitation, MM = Missing Value Source: NWS Daily Summary

Daily Weather History Graph

Daily Weather History Graph

Search for Another Location

Airport:

Trip Planner

Search our weather history database for the weather conditions in past years. The results will help you decide how hot, cold, wet, or windy it might be!

Date:

Astronomy

May. 05, 2013 Rise Set
Actual Time 6:26 AM CDT 7:53 PM CDT
Civil Twilight 6:00 AM CDT 8:18 PM CDT
Nautical Twilight 5:30 AM CDT 8:49 PM CDT
Astronomical Twilight 4:58 AM CDT 9:21 PM CDT
Moon 3:39 AM CDT (5/5) 4:09 PM CDT (5/5)
Length of Visible Light 14h 18m
Length of Day
13h 27m
Waning Crescent, 18% of the Moon is Illuminated
May 5
Waning Crescent
May 9
New
May 17
First Quarter
May 24
Full
May 31
Last Quarter

Hourly Weather History & Observations

Time (CDT) Temp. Dew Point Humidity Pressure Visibility Wind Dir Wind Speed Gust Speed Precip Events Conditions
12:53 AM 62.1 °F 55.9 °F 80% 29.96 in 10.0 mi WNW 3.5 mph - N/A   Clear
1:53 AM 60.1 °F 44.1 °F 55% 29.97 in 10.0 mi North 8.1 mph - N/A   Clear
2:53 AM 55.9 °F 42.1 °F 60% 29.96 in 10.0 mi North 5.8 mph - N/A   Clear
3:53 AM 53.1 °F 42.1 °F 66% 29.97 in 10.0 mi North 5.8 mph - N/A   Clear
4:53 AM 53.1 °F 42.1 °F 66% 29.98 in 10.0 mi North 6.9 mph - N/A   Clear
5:53 AM 51.1 °F 39.0 °F 63% 30.01 in 10.0 mi North 15.0 mph - N/A   Clear
6:53 AM 48.9 °F 39.9 °F 71% 30.03 in 10.0 mi Calm Calm - N/A   Clear
7:53 AM 54.0 °F 37.9 °F 55% 30.05 in 10.0 mi North 10.4 mph - N/A   Clear
8:53 AM 55.9 °F 39.0 °F 53% 30.07 in 10.0 mi North 13.8 mph - N/A   Clear
9:53 AM 60.1 °F 39.9 °F 47% 30.07 in 10.0 mi North 12.7 mph 19.6 mph N/A   Clear
10:53 AM 62.1 °F 39.0 °F 43% 30.08 in 10.0 mi NNW 11.5 mph 20.7 mph N/A   Clear
11:53 AM 64.0 °F 39.9 °F 41% 30.08 in 10.0 mi North 10.4 mph 18.4 mph N/A   Clear
12:53 PM 64.4 °F 39.2 °F 40% 30.04 in 10.0 mi NNW 12.7 mph 21.9 mph N/A   Clear
1:53 PM 66.0 °F 39.0 °F 37% 30.05 in 10.0 mi NNW 13.8 mph 23.0 mph N/A   Clear
2:53 PM 68.0 °F 39.9 °F 36% 30.04 in 10.0 mi NNW 11.5 mph 19.6 mph N/A   Clear
3:53 PM 68.0 °F 39.9 °F 36% 30.02 in 10.0 mi North 11.5 mph 21.9 mph N/A   Clear
4:53 PM 68.0 °F 41.0 °F 37% 30.01 in 10.0 mi NNW 10.4 mph 16.1 mph N/A   Clear
5:53 PM 68.0 °F 41.0 °F 37% 30.01 in 10.0 mi NW 10.4 mph - N/A   Clear
6:53 PM 66.9 °F 41.0 °F 39% 30.03 in 10.0 mi North 10.4 mph - N/A   Clear
7:53 PM 63.0 °F 41.0 °F 45% 30.05 in 10.0 mi NNE 9.2 mph - N/A   Clear
8:53 PM 59.0 °F 42.1 °F 53% 30.07 in 10.0 mi North 3.5 mph - N/A   Clear
9:53 PM 52.0 °F 46.0 °F 80% 30.09 in 10.0 mi Calm Calm - N/A   Clear
10:53 PM 51.1 °F 46.0 °F 83% 30.09 in 10.0 mi Calm Calm - N/A   Clear
11:53 PM 48.9 °F 45.0 °F 86% 30.09 in 10.0 mi Calm Calm - N/A   Clear